CST,Max TemperatureF,Mean TemperatureF,Min TemperatureF,Max Dew PointF,MeanDew PointF,Min DewpointF,Max Humidity, Mean Humidity, Min Humidity, Max Sea Level PressureIn, Mean Sea Level PressureIn, Min Sea Level PressureIn, Max VisibilityMiles, Mean VisibilityMiles, Min VisibilityMiles, Max Wind SpeedMPH, Mean Wind SpeedMPH, Max Gust SpeedMPH,PrecipitationIn, CloudCover, Events, WindDirDegrees
2014-1-1,8,3,-3,2,-1,-6,87,78,69,30.48,30.34,30.15,10,7,1,16,10,19,0.12,7,Snow,4
2014-1-2,11,3,-6,1,-3,-9,87,73,58,30.53,30.44,30.27,10,9,2,16,5,20,0.01,6,Snow,108
2014-1-3,38,23,8,30,14,2,84,77,69,30.31,29.89,29.53,10,8,2,32,16,42,T,5,Snow,183
2014-1-4,42,24,6,32,10,-4,76,69,62,30.34,30.04,29.64,10,10,8,37,20,44,T,5,Snow,341
2014-1-5,8,0,-9,-6,-13,-22,69,55,41,30.63,30.50,30.36,10,9,2,37,20,47,T,4,Snow,333
2014-1-6,6,-3,-13,-9,-15,-22,77,61,45,30.58,30.48,30.30,10,10,10,24,10,30,0.00,2,,302
2014-1-7,29,12,-6,11,2,-11,75,61,46,30.29,30.17,30.02,10,10,10,15,6,19,0.00,4,,33
2014-1-8,19,15,10,10,6,2,76,66,56,30.45,30.37,30.28,10,10,10,14,7,17,0.00,8,,96
2014-1-9,32,23,14,25,16,9,88,76,63,30.35,30.08,29.85,10,8,2,25,14,32,T,6,Snow,177
2014-1-10,40,34,27,31,28,22,100,82,64,29.83,29.65,29.51,10,5,1,17,9,21,0.00,6,,208
2014-1-11,48,38,27,26,22,19,81,56,31,29.84,29.74,29.60,10,10,10,24,12,29,0.00,1,,266
2014-1-12,50,43,35,32,27,23,60,53,46,29.70,29.55,29.46,10,10,10,23,9,31,0.00,2,,262
2014-1-13,49,37,24,33,25,20,88,60,31,29.86,29.75,29.64,10,10,10,24,12,30,T,2,,273
2014-1-14,47,33,18,33,14,4,65,47,29,30.30,30.07,29.66,10,10,10,41,23,51,0.00,2,,324
2014-1-15,49,28,7,28,14,0,73,56,39,30.29,30.01,29.73,10,10,10,24,10,31,T,4,,248
2014-1-16,46,32,17,24,13,1,56,47,37,30.13,29.90,29.73,10,10,7,49,30,63,T,5,,314
2014-1-17,37,24,10,15,8,-1,67,51,35,30.22,30.08,29.75,10,10,10,31,12,41,0.00,2,,270
2014-1-18,43,31,18,29,21,15,84,64,44,30.09,29.88,29.68,10,10,7,52,22,67,T,4,Rain,310
2014-1-19,66,43,19,23,19,13,84,48,12,29.96,29.82,29.68,10,10,10,32,13,42,0.00,0,,268
2014-1-20,45,23,1,27,12,-12,69,55,40,30.56,30.19,29.86,10,9,1,45,21,53,T,4,Snow,319
2014-1-21,31,14,-4,19,-1,-12,78,56,33,30.58,30.29,30.02,10,10,10,31,11,37,0.00,4,,261
2014-1-22,29,14,-2,20,6,-11,80,63,46,30.70,30.29,30.04,10,9,1,33,18,41,T,5,Snow,331
2014-1-23,19,7,-6,-8,-11,-14,75,53,30,30.90,30.73,30.40,10,10,10,25,12,32,0.00,0,,277
2014-1-24,51,32,13,35,20,-4,62,49,35,30.35,29.93,29.73,10,10,10,33,18,46,0.00,5,,280
2014-1-25,50,39,28,33,26,17,89,70,51,30.09,29.85,29.52,10,10,10,37,15,47,T,6,Rain,309
2014-1-26,54,30,5,31,13,-9,69,50,30,30.35,29.88,29.53,10,10,6,47,26,62,T,3,Rain,318
2014-1-27,11,2,-8,-9,-12,-15,65,50,34,30.57,30.50,30.35,10,10,10,30,10,36,0.00,0,,327
2014-1-28,19,5,-10,-6,-10,-16,71,51,30,30.53,30.41,30.25,10,10,10,20,7,26,0.00,0,,271
2014-1-29,51,23,-5,15,2,-11,72,43,14,30.25,29.87,29.49,10,10,10,30,14,38,0.00,1,,196
2014-1-30,45,31,17,25,12,7,71,52,33,30.12,29.75,29.32,10,10,9,36,19,44,T,6,Snow,331
2014-1-31,25,18,11,16,7,1,77,62,46,30.20,30.07,29.92,10,9,2,10,5,13,0.01,6,Snow,143